FW0153 Weather Reports


Display with metric or nautical units.
time (UTC)temp
F
wind
direction
speed
MPH
gust
MPH
rain 1hr
in
rain 24hr
in
rain mn
in
humidity
%
barometer
mb
20220119203505 81 213 18.0 0.0 0.00 0.00 0.00 47 1011.6
20220119203005 81 280 9.0 0.0 0.00 0.00 0.00 49 1011.3
20220119202505 81 203 9.0 0.0 0.00 0.00 0.00 49 1011.6
20220119202005 81 202 9.0 0.0 0.00 0.00 0.00 49 1011.6
20220119201505 81 213 9.0 0.0 0.00 0.00 0.00 48 1012.0
20220119201005 81 237 4.0 0.0 0.00 0.00 0.00 50 1011.6
20220119200505 80 219 41.0 0.0 0.00 0.00 0.00 51 1012.3
20220119200005 80 253 13.0 0.0 0.00 0.00 0.00 51 1012.0
20220119195504 80 239 13.0 0.0 0.00 0.00 0.00 53 1012.3
20220119195005 80 106 9.0 0.0 0.00 0.00 0.00 53 1012.3
20220119194505 80 264 18.0 0.0 0.00 0.00 0.00 54 1012.3
20220119194005 80 213 23.0 0.0 0.00 0.00 0.00 54 1012.3
20220119193505 79 236 27.0 0.0 0.00 0.00 0.00 55 1012.7
20220119193007 80 127 23.0 0.0 0.00 0.00 0.00 56 1012.3
20220119192508 80 198 9.0 0.0 0.00 0.00 0.00 56 1012.7
20220119192004 79 125 23.0 0.0 0.00 0.00 0.00 56 1012.7
20220119191508 78 230 13.0 0.0 0.00 0.00 0.00 58 1013.0
20220119191005 78 213 13.0 0.0 0.00 0.00 0.00 57 1013.0
20220119190507 78 221 23.0 0.0 0.00 0.00 0.00 58 1013.0
20220119190005 78 234 13.0 0.0 0.00 0.00 0.00 58 1013.3
20220119185505 78 225 23.0 0.0 0.00 0.00 0.00 58 1013.0
20220119185004 78 192 32.0 0.0 0.00 0.00 0.00 58 1013.0
20220119184505 77 208 18.0 0.0 0.00 0.00 0.00 59 1013.3
20220119184005 78 228 32.0 0.0 0.00 0.00 0.00 59 1013.3
20220119183505 77 214 13.0 0.0 0.00 0.00 0.00 60 1013.7
20220119183007 77 236 4.0 0.0 0.00 0.00 0.00 61 1013.7
20220119182505 77 226 13.0 0.0 0.00 0.00 0.00 60 1013.7
20220119182005 77 201 13.0 0.0 0.00 0.00 0.00 60 1014.0
20220119181504 77 201 18.0 0.0 0.00 0.00 0.00 60 1014.0
20220119181005 77 263 13.0 0.0 0.00 0.00 0.00 61 1014.4
20220119180508 77 162 23.0 0.0 0.00 0.00 0.00 60 1014.0
20220119180012 77 213 18.0 0.0 0.00 0.00 0.00 61 1014.4
20220119175512 77 171 23.0 0.0 0.00 0.00 0.00 61 1014.4
20220119175007 77 262 18.0 0.0 0.00 0.00 0.00 63 1014.7
20220119174507 76 225 23.0 0.0 0.00 0.00 0.00 63 1014.7
20220119174005 76 271 41.0 0.0 0.00 0.00 0.00 62 1014.7
20220119173505 76 222 18.0 0.0 0.00 0.00 0.00 65 1014.4
20220119173004 75 201 23.0 0.0 0.00 0.00 0.00 65 1014.7
20220119172505 74 230 23.0 0.0 0.00 0.00 0.00 66 1014.7
20220119172005 74 209 27.0 0.0 0.00 0.00 0.00 66 1014.7
20220119171505 74 174 32.0 0.0 0.00 0.00 0.00 67 1014.7
20220119171005 74 222 18.0 0.0 0.00 0.00 0.00 67 1015.0
20220119170505 74 196 23.0 0.0 0.00 0.00 0.00 69 1014.7
20220119170005 74 211 37.0 0.0 0.00 0.00 0.00 69 1015.0
20220119165505 74 211 13.0 0.0 0.00 0.00 0.00 70 1015.0
20220119165005 74 211 41.0 0.0 0.00 0.00 0.00 69 1015.0
20220119164505 73 241 13.0 0.0 0.00 0.00 0.00 71 1015.0
20220119164008 74 200 32.0 0.0 0.00 0.00 0.00 70 1015.0
20220119163505 73 144 13.0 0.0 0.00 0.00 0.00 72 1015.0
20220119163004 73 218 32.0 0.0 0.00 0.00 0.00 72 1015.0
20220119162505 72 238 18.0 0.0 0.00 0.00 0.00 74 1015.0
20220119162005 72 224 46.0 0.0 0.00 0.00 0.00 74 1015.0
20220119161505 71 224 27.0 0.0 0.00 0.00 0.00 75 1015.0
20220119161005 71 136 13.0 0.0 0.00 0.00 0.00 76 1015.0
20220119160505 71 163 23.0 0.0 0.00 0.00 0.00 75 1015.0
20220119160005 71 112 9.0 0.0 0.00 0.00 0.00 77 1015.0
20220119155510 71 207 27.0 0.0 0.00 0.00 0.00 77 1014.7
20220119155007 71 214 13.0 0.0 0.00 0.00 0.00 78 1015.0
20220119154505 70 213 32.0 0.0 0.00 0.00 0.00 78 1014.7
20220119154004 70 225 13.0 0.0 0.00 0.00 0.00 79 1014.7
20220119153505 70 222 9.0 0.0 0.00 0.00 0.00 80 1014.7
20220119153005 69 115 9.0 0.0 0.00 0.00 0.00 81 1014.7
20220119152508 69 240 13.0 0.0 0.00 0.00 0.00 81 1014.7
20220119152005 68 237 9.0 0.0 0.00 0.00 0.00 82 1014.7
20220119151505 68 201 13.0 0.0 0.00 0.00 0.00 82 1014.4
20220119151005 68 215 18.0 0.0 0.00 0.00 0.00 83 1014.7
20220119150505 68 176 9.0 0.0 0.00 0.00 0.00 84 1014.4
20220119150005 68 216 18.0 0.0 0.00 0.00 0.00 84 1014.4
20220119145504 68 148 9.0 0.0 0.00 0.00 0.00 85 1014.4
20220119145005 67 217 13.0 0.0 0.00 0.00 0.00 87 1014.4
20220119144505 67 129 4.0 0.0 0.00 0.00 0.00 88 1014.4
20220119144005 66 126 27.0 0.0 0.00 0.00 0.00 89 1014.4
20220119143505 66 205 13.0 0.0 0.00 0.00 0.00 90 1014.0
20220119143005 66 188 4.0 0.0 0.00 0.00 0.00 91 1014.0
20220119142505 65 210 13.0 0.0 0.00 0.00 0.00 91 1014.0
20220119142005 65 224 13.0 0.0 0.00 0.00 0.00 92 1014.0
20220119141516 65 208 4.0 0.0 0.00 0.00 0.00 92 1014.0
20220119141005 65 178 4.0 0.0 0.00 0.00 0.00 92 1014.0
20220119140518 65 201 4.0 0.0 0.00 0.00 0.00 92 1013.7
20220119140005 65 181 0.0 0.0 0.00 0.00 0.00 92 1013.7
20220119135505 65 217 0.0 0.0 0.00 0.00 0.00 92 1013.7
20220119135005 65 203 0.0 0.0 0.00 0.00 0.00 92 1013.7
20220119134505 65 196 4.0 0.0 0.00 0.00 0.00 92 1013.7
20220119134005 64 227 0.0 0.0 0.00 0.00 0.00 92 1013.7
20220119133507 64 220 0.0 0.0 0.00 0.00 0.00 92 1013.7
20220119133005 64 233 0.0 0.0 0.00 0.00 0.00 92 1013.3
20220119132507 64 141 0.0 0.0 0.00 0.00 0.00 92 1013.3
20220119132005 64 137 4.0 0.0 0.00 0.00 0.00 92 1013.3
20220119131506 64 88 13.0 0.0 0.00 0.00 0.00 92 1013.3
20220119131005 64 93 9.0 0.0 0.00 0.00 0.00 92 1013.3
20220119130505 64 192 4.0 0.0 0.00 0.00 0.00 92 1013.3
20220119130005 64 231 4.0 0.0 0.00 0.00 0.00 92 1013.0
20220119125505 64 157 9.0 0.0 0.00 0.00 0.00 92 1013.3
20220119125005 64 191 4.0 0.0 0.00 0.00 0.00 92 1012.7
20220119124505 64 114 4.0 0.0 0.00 0.00 0.00 92 1013.0
20220119124005 65 140 4.0 0.0 0.00 0.00 0.00 92 1013.3
20220119123505 65 177 4.0 0.0 0.00 0.00 0.00 92 1013.3
20220119123005 65 133 4.0 0.0 0.00 0.00 0.00 92 1013.3
20220119122515 65 194 4.0 0.0 0.00 0.00 0.00 91 1013.3
20220119122004 65 146 4.0 0.0 0.00 0.00 0.00 91 1013.3
20220119121505 65 206 4.0 0.0 0.00 0.00 0.00 91 1013.3
20220119121005 65 215 0.0 0.0 0.00 0.00 0.00 91 1013.3
20220119120504 65 220 0.0 0.0 0.00 0.00 0.00 91 1013.3
20220119120005 65 204 0.0 0.0 0.00 0.00 0.00 91 1013.3
20220119115505 65 186 4.0 0.0 0.00 0.00 0.00 91 1013.3
20220119115005 65 214 0.0 0.0 0.00 0.00 0.00 91 1013.3
20220119114505 65 211 4.0 0.0 0.00 0.00 0.00 91 1013.3
20220119114007 65 225 0.0 0.0 0.00 0.00 0.00 91 1013.3
20220119113505 65 217 0.0 0.0 0.00 0.00 0.00 91 1013.3
20220119113005 65 205 0.0 0.0 0.00 0.00 0.00 91 1013.3
20220119112507 65 188 9.0 0.0 0.00 0.00 0.00 91 1013.3
20220119112005 65 227 0.0 0.0 0.00 0.00 0.00 90 1013.3
20220119111507 65 224 9.0 0.0 0.00 0.00 0.00 90 1013.0
20220119111005 65 213 13.0 0.0 0.00 0.00 0.00 90 1012.7
20220119110512 65 238 4.0 0.0 0.00 0.00 0.00 90 1012.7
20220119110005 65 199 13.0 0.0 0.00 0.00 0.00 90 1012.7
20220119105505 65 201 13.0 0.0 0.00 0.00 0.00 90 1012.7
20220119105005 65 230 4.0 0.0 0.00 0.00 0.00 90 1013.0
20220119104505 65 186 4.0 0.0 0.00 0.00 0.00 90 1012.7
20220119104004 65 191 9.0 0.0 0.00 0.00 0.00 90 1012.3
20220119103505 65 136 13.0 0.0 0.00 0.00 0.00 90 1013.0
20220119103005 65 197 9.0 0.0 0.00 0.00 0.00 90 1012.7
20220119102512 65 221 4.0 0.0 0.00 0.00 0.00 90 1012.7
20220119102007 65 161 13.0 0.0 0.00 0.00 0.00 90 1013.0
20220119101505 65 173 9.0 0.0 0.00 0.00 0.00 90 1012.7
20220119101005 66 221 9.0 0.0 0.00 0.00 0.00 90 1013.0
20220119100507 66 183 4.0 0.0 0.00 0.00 0.00 90 1013.0
20220119100005 66 77 9.0 0.0 0.00 0.00 0.00 90 1013.0
20220119095505 66 182 18.0 0.0 0.00 0.00 0.00 90 1013.0
20220119095012 66 124 13.0 0.0 0.00 0.00 0.00 90 1013.0
20220119094513 66 231 0.0 0.0 0.00 0.00 0.00 89 1013.0
20220119094005 66 224 4.0 0.0 0.00 0.00 0.00 89 1013.0
20220119093505 66 134 4.0 0.0 0.00 0.00 0.00 89 1013.0
20220119093004 66 204 23.0 0.0 0.00 0.00 0.00 89 1013.0
20220119092505 66 210 9.0 0.0 0.00 0.00 0.00 89 1013.0
20220119092005 66 205 4.0 0.0 0.00 0.00 0.00 89 1012.7
20220119091505 66 218 13.0 0.0 0.00 0.00 0.00 89 1012.7
20220119091005 66 122 13.0 0.0 0.00 0.00 0.00 89 1012.7
20220119090505 66 205 18.0 0.0 0.00 0.00 0.00 89 1013.0
20220119090005 66 238 4.0 0.0 0.00 0.00 0.00 89 1012.7
20220119085505 66 223 18.0 0.0 0.00 0.00 0.00 89 1012.7
20220119085007 66 209 13.0 0.0 0.00 0.00 0.00 89 1013.0
20220119084505 66 226 0.0 0.0 0.00 0.00 0.00 89 1012.7
20220119084005 66 223 13.0 0.0 0.00 0.00 0.00 89 1012.3
20220119083507 66 199 13.0 0.0 0.00 0.00 0.00 89 1012.7
20220119083005 66 178 13.0 0.0 0.00 0.00 0.00 89 1012.7
20220119082505 66 193 9.0 0.0 0.00 0.00 0.00 88 1012.3
20220119082005 66 216 13.0 0.0 0.00 0.00 0.00 88 1012.7
20220119081505 66 109 9.0 0.0 0.00 0.00 0.00 88 1013.0
20220119081005 66 232 9.0 0.0 0.00 0.00 0.00 88 1013.0
20220119080505 67 195 13.0 0.0 0.00 0.00 0.00 88 1013.0
20220119080005 67 211 0.0 0.0 0.00 0.00 0.00 88 1013.3
20220119075504 67 201 4.0 0.0 0.00 0.00 0.00 88 1013.3
20220119075005 67 208 13.0 0.0 0.00 0.00 0.00 88 1013.3
20220119074512 67 200 13.0 0.0 0.00 0.00 0.00 88 1013.3
20220119074005 67 201 4.0 0.0 0.00 0.00 0.00 88 1013.3
20220119073505 67 181 4.0 0.0 0.00 0.00 0.00 88 1013.3
20220119073007 67 126 13.0 0.0 0.00 0.00 0.00 88 1013.3
20220119072505 67 232 4.0 0.0 0.00 0.00 0.00 88 1013.3
20220119072005 67 225 13.0 0.0 0.00 0.00 0.00 88 1013.7
20220119071505 67 164 9.0 0.0 0.00 0.00 0.00 87 1013.7
20220119071007 67 230 13.0 0.0 0.00 0.00 0.00 88 1013.7
20220119070507 67 184 4.0 0.0 0.00 0.00 0.00 88 1013.7
20220119070005 67 223 4.0 0.0 0.00 0.00 0.00 87 1013.7
20220119065505 67 134 18.0 0.0 0.00 0.00 0.00 87 1014.0
20220119065018 67 219 9.0 0.0 0.00 0.00 0.00 87 1014.0
20220119064507 67 183 13.0 0.0 0.00 0.00 0.00 87 1014.0
20220119064005 67 206 9.0 0.0 0.00 0.00 0.00 87 1013.7
20220119063505 67 212 18.0 0.0 0.00 0.00 0.00 87 1013.7
20220119063005 67 209 18.0 0.0 0.00 0.00 0.00 87 1013.7
20220119062505 67 192 4.0 0.0 0.00 0.00 0.00 87 1013.7
20220119062004 67 216 4.0 0.0 0.00 0.00 0.00 87 1014.4
20220119061505 67 202 27.0 0.0 0.00 0.00 0.00 88 1014.0
20220119061005 67 68 4.0 0.0 0.00 0.00 0.00 87 1014.0
20220119060505 67 95 23.0 0.0 0.00 0.00 0.00 87 1014.4
20220119055504 67 195 9.0 0.0 0.00 0.00 0.00 87 1014.4
20220119055005 67 196 4.0 0.0 0.00 0.00 0.00 87 1014.0
20220119054505 67 192 13.0 0.0 0.00 0.00 0.00 87 1014.4
20220119054005 67 207 32.0 0.0 0.00 0.00 0.00 87 1014.4
20220119053505 67 200 9.0 0.0 0.00 0.00 0.00 87 1014.4
20220119053007 67 166 4.0 0.0 0.00 0.00 0.00 87 1014.4
20220119052508 68 198 4.0 0.0 0.00 0.00 0.00 87 1014.4
20220119052007 68 215 13.0 0.0 0.00 0.00 0.00 87 1014.0
20220119051505 68 214 4.0 0.0 0.00 0.00 0.00 87 1014.0
20220119051012 68 121 13.0 0.0 0.00 0.00 0.00 87 1014.4
20220119050505 68 211 18.0 0.0 0.00 0.00 0.00 87 1014.4
20220119050005 68 208 9.0 0.0 0.00 0.00 0.00 87 1014.4
20220119045505 68 218 4.0 0.0 0.00 0.00 0.00 86 1014.0
20220119045005 68 210 4.0 0.0 0.00 0.00 0.00 86 1014.4
20220119044505 68 213 4.0 0.0 0.00 0.00 0.00 86 1014.4
20220119044005 68 208 13.0 0.0 0.00 0.00 0.00 86 1014.4
20220119043505 68 185 13.0 0.0 0.00 0.00 0.00 86 1014.4
20220119043005 68 228 4.0 0.0 0.00 0.00 0.00 86 1014.0
20220119042505 68 188 9.0 0.0 0.00 0.00 0.00 86 1014.4
20220119042005 68 210 13.0 0.0 0.00 0.00 0.00 86 1014.0
20220119041505 68 176 13.0 0.0 0.00 0.00 0.00 86 1014.0
20220119041005 68 162 13.0 0.0 0.00 0.00 0.00 86 1014.0
20220119040507 68 234 9.0 0.0 0.00 0.00 0.00 85 1014.0
20220119040005 68 201 9.0 0.0 0.00 0.00 0.00 85 1014.0
20220119035505 68 69 13.0 0.0 0.00 0.00 0.00 85 1014.0
20220119035007 68 226 4.0 0.0 0.00 0.00 0.00 85 1014.0
20220119034505 68 175 13.0 0.0 0.00 0.00 0.00 85 1014.4
20220119034007 68 167 13.0 0.0 0.00 0.00 0.00 85 1014.4
20220119033507 68 204 13.0 0.0 0.00 0.00 0.00 84 1013.7
20220119033005 68 231 23.0 0.0 0.00 0.00 0.00 84 1014.0
20220119032505 68 178 9.0 0.0 0.00 0.00 0.00 84 1013.7
20220119032016 68 185 4.0 0.0 0.00 0.00 0.00 84 1014.0
20220119031505 68 210 4.0 0.0 0.00 0.00 0.00 83 1014.0
20220119031004 68 186 13.0 0.0 0.00 0.00 0.00 83 1013.7
20220119030505 68 212 4.0 0.0 0.00 0.00 0.00 83 1014.0
20220119030005 68 194 4.0 0.0 0.00 0.00 0.00 83 1014.0
20220119025504 68 196 9.0 0.0 0.00 0.00 0.00 82 1013.7
20220119025005 68 125 13.0 0.0 0.00 0.00 0.00 82 1013.7
20220119024508 68 190 4.0 0.0 0.00 0.00 0.00 82 1013.7
20220119024004 68 211 9.0 0.0 0.00 0.00 0.00 81 1013.7
20220119023505 68 191 18.0 0.0 0.00 0.00 0.00 81 1013.7
20220119023005 68 146 23.0 0.0 0.00 0.00 0.00 81 1013.7
20220119022505 68 53 9.0 0.0 0.00 0.00 0.00 80 1013.7
20220119022005 69 145 9.0 0.0 0.00 0.00 0.00 80 1013.7
20220119021505 68 78 4.0 0.0 0.00 0.00 0.00 80 1013.3
20220119021005 69 218 23.0 0.0 0.00 0.00 0.00 79 1013.3
20220119020505 69 143 4.0 0.0 0.00 0.00 0.00 79 1013.3
20220119020005 69 192 9.0 0.0 0.00 0.00 0.00 78 1013.3
20220119015504 69 213 13.0 0.0 0.00 0.00 0.00 78 1013.3
20220119015005 69 90 18.0 0.0 0.00 0.00 0.00 77 1013.3
20220119014505 69 251 27.0 0.0 0.00 0.00 0.00 77 1013.3
20220119014008 69 108 13.0 0.0 0.00 0.00 0.00 76 1013.3
20220119013512 70 160 13.0 0.0 0.00 0.00 0.00 75 1013.3
20220119013005 70 75 23.0 0.0 0.00 0.00 0.00 75 1013.0
20220119012505 70 214 4.0 0.0 0.00 0.00 0.00 75 1013.3
20220119012005 70 129 9.0 0.0 0.00 0.00 0.00 74 1013.0
20220119011513 70 136 13.0 0.0 0.00 0.00 0.00 74 1013.0
20220119011004 70 136 9.0 0.0 0.00 0.00 0.00 73 1013.3
20220119010505 70 171 9.0 0.0 0.00 0.00 0.00 73 1013.0
20220119010005 70 175 9.0 0.0 0.00 0.00 0.00 72 1013.0
20220119005505 70 223 9.0 0.0 0.00 0.00 0.00 72 1013.0
20220119005005 71 193 9.0 0.0 0.00 0.00 0.00 71 1013.0
20220119004504 71 110 13.0 0.0 0.00 0.00 0.00 70 1012.7
20220119004009 71 107 23.0 0.0 0.00 0.00 0.00 69 1013.0
20220119003507 71 189 9.0 0.0 0.00 0.00 0.00 69 1012.7
20220119003007 71 217 23.0 0.0 0.00 0.00 0.00 68 1012.7
20220119002507 71 194 13.0 0.0 0.00 0.00 0.00 67 1012.7
20220119002008 71 191 13.0 0.0 0.00 0.00 0.00 66 1012.7
20220119001508 71 221 13.0 0.0 0.00 0.00 0.00 66 1012.7
20220119001007 71 185 4.0 0.0 0.00 0.00 0.00 66 1012.7
20220119000505 72 142 23.0 0.0 0.00 0.00 0.00 65 1012.7
20220119000005 72 162 13.0 0.0 0.00 0.00 0.00 65 1012.3
20220118235505 72 229 13.0 0.0 0.00 0.00 0.00 64 1012.7
20220118235005 72 172 13.0 0.0 0.00 0.00 0.00 64 1012.3
20220118234505 73 206 13.0 0.0 0.00 0.00 0.00 63 1012.7
20220118234004 73 175 13.0 0.0 0.00 0.00 0.00 63 1013.0
20220118233505 73 134 23.0 0.0 0.00 0.00 0.00 63 1012.7
20220118233005 73 158 4.0 0.0 0.00 0.00 0.00 62 1012.7
20220118232505 73 193 9.0 0.0 0.00 0.00 0.00 62 1012.7
20220118232005 74 211 4.0 0.0 0.00 0.00 0.00 61 1012.3
20220118231505 74 174 4.0 0.0 0.00 0.00 0.00 61 1012.7
20220118231004 74 142 18.0 0.0 0.00 0.00 0.00 61 1012.7
20220118230505 74 87 23.0 0.0 0.00 0.00 0.00 60 1012.7
20220118230005 74 209 13.0 0.0 0.00 0.00 0.00 60 1012.3
20220118225505 74 194 18.0 0.0 0.00 0.00 0.00 59 1012.7
20220118225005 74 180 9.0 0.0 0.00 0.00 0.00 59 1012.3
20220118224505 74 220 9.0 0.0 0.00 0.00 0.00 59 1012.7
20220118224004 74 68 9.0 0.0 0.00 0.00 0.00 59 1012.7
20220118223505 74 245 32.0 0.0 0.00 0.00 0.00 58 1012.7
20220118223005 74 198 32.0 0.0 0.00 0.00 0.00 58 1012.7
20220118222505 74 66 18.0 0.0 0.00 0.00 0.00 58 1012.7
20220118222005 75 121 9.0 0.0 0.00 0.00 0.00 58 1012.3
20220118221505 75 145 27.0 0.0 0.00 0.00 0.00 58 1012.3
20220118221005 75 93 18.0 0.0 0.00 0.00 0.00 58 1012.3
20220118220504 75 117 23.0 0.0 0.00 0.00 0.00 58 1012.3
20220118220005 75 137 18.0 0.0 0.00 0.00 0.00 58 1012.3
20220118215505 76 93 13.0 0.0 0.00 0.00 0.00 58 1012.7
20220118215005 76 205 9.0 0.0 0.00 0.00 0.00 58 1012.3
20220118214505 75 211 13.0 0.0 0.00 0.00 0.00 58 1012.3
20220118214005 76 137 23.0 0.0 0.00 0.00 0.00 58 1012.3
20220118213504 76 199 46.0 0.0 0.00 0.00 0.00 57 1012.3
20220118213005 76 311 18.0 0.0 0.00 0.00 0.00 57 1012.7
20220118212505 77 219 18.0 0.0 0.00 0.00 0.00 56 1012.7
20220118212005 77 146 23.0 0.0 0.00 0.00 0.00 56 1013.0
20220118211505 77 103 18.0 0.0 0.00 0.00 0.00 56 1012.7
20220118211005 77 201 23.0 0.0 0.00 0.00 0.00 55 1012.7
20220118210505 77 152 9.0 0.0 0.00 0.00 0.00 53 1012.7
20220118210005 77 187 9.0 0.0 0.00 0.00 0.00 53 1013.0
20220118205505 77 235 23.0 0.0 0.00 0.00 0.00 53 1013.0
20220118205005 77 200 18.0 0.0 0.00 0.00 0.00 52 1012.7
20220118204505 77 227 18.0 0.0 0.00 0.00 0.00 53 1013.0
20220118204005 77 203 4.0 0.0 0.00 0.00 0.00 53 1013.0